sat.trackr.live / text

‹ back to catalog

IRIDIUM 115

NORAD 42806 · 2017-039D

PAYLOAD ACTIVE UNKNOWN

§ Identity

Operator
Country
US
Launch date
2017-06-25
Launch site
AFWTR
Launch vehicle
Mass (kg)
RCS (m²)

Purposes: comms

External: N2YO · Heavens-Above · Gunter

§ Orbital elements

Epoch: 2026-05-25T00:45:13.027392Z

Period
99.77 min
Inclination
86.4484°
Eccentricity
0.0002104
Mean motion
14.43280347 rev/d
Perigee alt
746.2 km
Apogee alt
749.2 km
Semi-major
7,125.8 km
B*
-3.4784e-6
RAAN
331.7734°
Arg perigee
82.2936°
Mean anomaly
277.8503°
Rev number
47,092

§ Raw data

IRIDIUM 1151 42806U 17039D   26145.03140078  .00000009  00000+0 -34784-5 0  99912 42806  86.4484 331.7734 0002104  82.2936 277.8503 14.43280347470921

JSON: /api/v1/satellites/42806 · /tle

For live sub-satellite position, see the globe view (requires WebGL).

§ Visibility from observer

Set your observer location to see the next 7 days of passes ≥ 10°. The values pass through the URL so the page stays shareable.

No JS? Fill the form by hand. The geolocation button needs JavaScript.